DW6954 Weather Reports


time (UTC)temp
F
wind
direction
speed
knots
gust
knots
rain 1hr
in
rain 24hr
in
rain mn
in
humidity
%
barometer
mb
20260510224524 47 31 0.0 2.6 0.00 0.01 0.01 95 1030.4
20260510224008 47 50 0.0 0.9 0.00 0.01 0.01 95 1030.4
20260510223608 46 44 0.0 1.7 0.00 0.01 0.01 95 1030.4
20260510223008 46 7 0.0 1.7 0.01 0.01 0.01 95 1030.4
20260510222508 46 317 0.0 0.9 0.01 0.01 0.01 95 1030.5
20260510222007 45 47 0.0 1.7 0.01 0.01 0.01 95 1030.4
20260510221507 45 62 0.0 0.9 0.01 0.01 0.01 95 1030.4
20260510221007 45 62 0.0 0.9 0.01 0.01 0.01 95 1030.3
20260510220507 44 61 0.0 0.9 0.01 0.01 0.01 95 1030.4
20260510220011 44 76 0.0 0.9 0.01 0.01 0.01 95 1030.3
20260510215507 44 39 0.0 0.9 0.01 0.01 0.01 95 1030.3
20260510215006 43 62 0.0 0.9 0.01 0.01 0.01 95 1030.3
20260510214505 43 66 0.0 0.9 0.01 0.01 0.01 95 1030.2
20260510214005 43 47 0.0 0.9 0.01 0.01 0.01 94 1030.2
20260510213505 43 47 0.0 0.0 0.00 0.00 0.00 94 1030.1
20260510213004 43 47 0.0 1.7 0.00 0.00 0.00 94 1030.1
20260510212505 43 12 0.0 0.0 0.00 0.00 0.00 94 1030.1
20260510212008 43 12 0.0 0.0 0.00 0.00 0.00 94 1030.0
20260510211502 43 14 0.0 0.0 0.00 0.00 0.00 94 1029.9
20260510211001 43 14 0.0 0.0 0.00 0.00 0.00 94 1029.8
20260510210502 43 14 0.0 0.9 0.00 0.00 0.00 94 1029.8
20260510210002 43 49 0.0 0.9 0.00 0.00 0.00 94 1029.7
20260510205503 43 49 0.0 0.0 0.00 0.00 0.00 94 1029.7
20260510205100 43 49 0.0 0.0 0.00 0.00 0.00 94 1029.7
20260510204601 43 49 0.0 0.9 0.00 0.00 0.00 94 1029.6
20260510204103 43 49 0.0 0.9 0.00 0.00 0.00 94 1029.6
20260510203601 43 49 0.0 0.0 0.00 0.00 0.00 94 1029.5
20260510203057 43 49 0.0 0.9 0.00 0.00 0.00 94 1029.5
20260510202557 43 49 0.0 0.9 0.00 0.00 0.00 94 1029.4
20260510202056 42 31 0.0 0.0 0.00 0.00 0.00 94 1029.5
20260510201557 42 30 0.0 0.0 0.00 0.00 0.00 94 1029.5
20260510201055 42 72 0.0 0.0 0.00 0.00 0.00 94 1029.4
20260510200555 42 169 0.0 0.0 0.00 0.00 0.00 94 1029.3
20260510200116 42 169 0.0 0.0 0.00 0.00 0.00 94 1029.3
20260510195553 42 169 0.0 0.0 0.00 0.00 0.00 94 1029.2
20260510195052 42 169 0.0 0.0 0.00 0.00 0.00 94 1029.2
20260510194559 42 169 0.0 0.0 0.00 0.00 0.00 94 1029.1
20260510194051 42 169 0.0 0.0 0.00 0.00 0.00 94 1029.0
20260510193551 42 169 0.0 0.0 0.00 0.00 0.00 94 1029.0
20260510193057 42 169 0.0 0.0 0.00 0.00 0.00 94 1028.9
20260510192549 42 169 0.0 0.0 0.00 0.00 0.00 94 1028.9
20260510192050 42 169 0.0 0.0 0.00 0.00 0.00 94 1028.9
20260510191549 42 173 0.0 0.0 0.00 0.00 0.00 94 1028.9
20260510191050 42 173 0.0 0.0 0.00 0.00 0.00 94 1028.8
20260510190547 42 173 0.0 0.0 0.00 0.00 0.00 94 1028.8
20260510190048 42 173 0.0 0.0 0.00 0.00 0.00 93 1028.7
20260510185549 42 173 0.0 0.0 0.00 0.00 0.00 93 1028.7
20260510185046 42 173 0.0 0.0 0.00 0.00 0.00 93 1028.6
20260510184554 42 173 0.0 0.0 0.00 0.00 0.00 93 1028.6
20260510184046 42 173 0.0 0.0 0.00 0.00 0.00 94 1028.6
20260510183546 42 173 0.0 0.0 0.00 0.00 0.00 93 1028.5
20260510183043 42 173 0.0 0.0 0.00 0.00 0.00 93 1028.5
20260510182644 42 173 0.0 0.0 0.00 0.00 0.00 93 1028.4
20260510182042 42 173 0.0 0.0 0.00 0.00 0.00 93 1028.3
20260510181541 42 173 0.0 0.0 0.00 0.00 0.00 93 1028.2
20260510181041 42 173 0.0 0.0 0.00 0.00 0.00 93 1028.2
20260510180542 43 173 0.0 0.0 0.00 0.00 0.00 93 1028.2
20260510180044 43 173 0.0 0.0 0.00 0.00 0.00 93 1028.2
20260510175540 43 173 0.0 0.0 0.00 0.00 0.00 94 1028.1
20260510175041 43 173 0.0 0.0 0.00 0.00 0.00 94 1028.1
20260510174542 43 173 0.0 0.0 0.00 0.00 0.00 94 1028.0
20260510174039 42 173 0.0 0.0 0.00 0.00 0.00 94 1028.0
20260510173539 42 173 0.0 0.0 0.00 0.00 0.00 94 1028.1
20260510173040 42 173 0.0 0.0 0.00 0.00 0.00 94 1028.1
20260510172538 42 173 0.0 0.0 0.00 0.00 0.00 93 1028.0
20260510172039 42 173 0.0 0.0 0.00 0.00 0.00 93 1028.0
20260510171540 42 173 0.0 0.0 0.00 0.00 0.00 93 1028.0
20260510171037 42 173 0.0 0.0 0.00 0.00 0.00 93 1028.0
20260510170537 42 173 0.0 0.0 0.00 0.00 0.00 93 1028.0
20260510170037 42 173 0.0 0.0 0.00 0.00 0.00 93 1028.0
20260510165536 42 173 0.0 0.0 0.00 0.00 0.00 92 1028.0
20260510165040 42 173 0.0 0.0 0.00 0.00 0.00 92 1028.0
20260510164537 42 173 0.0 0.0 0.00 0.00 0.00 92 1028.0
20260510164035 43 173 0.0 0.0 0.00 0.00 0.00 93 1028.0
20260510163535 43 173 0.0 0.0 0.00 0.00 0.00 93 1028.0
20260510163035 43 173 0.0 0.0 0.00 0.00 0.00 93 1028.1
20260510162534 42 173 0.0 0.0 0.00 0.00 0.00 93 1028.2
20260510162135 42 173 0.0 0.0 0.00 0.00 0.00 92 1028.1
20260510161535 42 173 0.0 0.0 0.00 0.00 0.00 92 1028.1
20260510161032 42 173 0.0 0.0 0.00 0.00 0.00 92 1028.1
20260510160530 43 173 0.0 0.0 0.00 0.00 0.00 92 1028.1
20260510160036 43 173 0.0 0.0 0.00 0.00 0.00 92 1028.1
20260510155534 44 173 0.0 0.0 0.00 0.00 0.00 92 1028.2
20260510155030 44 173 0.0 0.0 0.00 0.00 0.00 93 1028.1
20260510154530 44 173 0.0 0.0 0.00 0.00 0.00 93 1028.1
20260510154030 44 173 0.0 0.0 0.00 0.00 0.00 92 1028.0
20260510153529 44 173 0.0 0.0 0.00 0.00 0.00 92 1028.0
20260510153034 45 173 0.0 0.0 0.00 0.00 0.00 92 1028.0
20260510152531 45 173 0.0 0.0 0.00 0.00 0.00 92 1028.0
20260510152027 45 173 0.0 0.0 0.00 0.00 0.00 92 1028.0
20260510151530 45 173 0.0 0.0 0.00 0.00 0.00 94 1028.0
20260510151026 45 173 0.0 0.0 0.00 0.00 0.00 94 1028.0
20260510150526 43 173 0.0 0.0 0.00 0.00 0.00 92 1028.0
20260510150038 43 173 0.0 0.0 0.00 0.00 0.00 91 1028.0
20260510145528 43 173 0.0 0.0 0.00 0.00 0.00 91 1028.0
20260510145023 44 173 0.0 0.0 0.00 0.00 0.00 92 1028.0
20260510144524 44 173 0.0 0.0 0.00 0.00 0.00 92 1028.0
20260510144023 44 173 0.0 0.0 0.00 0.00 0.00 92 1028.0
20260510143524 44 173 0.0 0.0 0.00 0.00 0.00 92 1027.9
20260510143024 44 173 0.0 0.0 0.00 0.00 0.00 91 1027.9
20260510142520 44 173 0.0 0.0 0.00 0.00 0.00 91 1027.9
20260510142019 44 173 0.0 0.0 0.00 0.00 0.00 91 1027.9
20260510141019 44 173 0.0 0.0 0.00 0.00 0.00 91 1027.9
20260510140516 45 173 0.0 0.0 0.00 0.00 0.00 91 1027.8
20260510140017 45 173 0.0 0.0 0.00 0.00 0.00 91 1027.9
20260510135518 45 173 0.0 0.0 0.00 0.00 0.00 91 1027.9
20260510135014 46 173 0.0 0.0 0.00 0.00 0.00 91 1027.8
20260510134513 46 173 0.0 0.0 0.00 0.00 0.00 90 1027.8
20260510134012 47 173 0.0 0.0 0.00 0.00 0.00 90 1027.8
20260510133510 47 173 0.0 0.0 0.00 0.00 0.00 91 1027.8
20260510133013 48 173 0.0 0.0 0.00 0.00 0.00 90 1027.8
20260510132508 48 173 0.0 0.0 0.00 0.00 0.00 90 1027.8
20260510132008 49 173 0.0 0.0 0.00 0.00 0.00 90 1027.9
20260510131507 50 173 0.0 0.0 0.00 0.00 0.00 91 1027.8
20260510131006 50 173 0.0 0.0 0.00 0.00 0.00 91 1027.8
20260510130505 50 173 0.0 0.0 0.00 0.00 0.00 91 1027.9
20260510130008 50 173 0.0 0.9 0.00 0.00 0.00 91 1027.8
20260510125504 50 173 0.0 0.9 0.00 0.00 0.00 91 1027.9
20260510125005 50 173 0.0 0.0 0.00 0.00 0.00 91 1028.0
20260510124502 51 173 0.0 0.9 0.00 0.00 0.00 91 1028.0
20260510124003 51 173 0.0 0.9 0.00 0.00 0.00 91 1028.0
20260510123501 51 173 0.0 0.9 0.00 0.00 0.00 91 1028.0
20260510123001 51 173 0.0 0.9 0.00 0.00 0.00 91 1028.0
20260510122601 51 171 0.0 0.9 0.00 0.00 0.00 91 1028.1
20260510122059 51 175 0.0 0.9 0.00 0.00 0.00 91 1028.1
20260510121559 51 175 0.0 0.9 0.00 0.00 0.00 92 1028.2
20260510120559 50 214 0.0 0.9 0.00 0.00 0.00 93 1028.1
20260510120055 48 214 0.0 0.0 0.00 0.00 0.00 91 1028.1
20260510115554 47 215 0.0 0.0 0.00 0.00 0.00 89 1028.2
20260510115054 47 215 0.0 0.0 0.00 0.00 0.00 89 1028.1
20260510114553 47 215 0.0 0.0 0.00 0.00 0.00 90 1028.1
20260510114053 47 215 0.0 0.0 0.00 0.00 0.00 89 1027.9
20260510113552 47 215 0.0 0.0 0.00 0.00 0.00 89 1027.8
20260510113051 48 215 0.0 0.0 0.00 0.00 0.00 89 1027.8
20260510112551 47 215 0.0 0.0 0.00 0.00 0.00 89 1027.8
20260510112052 48 215 0.0 0.0 0.00 0.00 0.00 88 1027.8
20260510111551 48 215 0.0 0.0 0.00 0.00 0.00 88 1027.7
20260510111049 48 215 0.0 0.0 0.00 0.00 0.00 88 1027.6
20260510110548 49 215 0.0 0.0 0.00 0.00 0.00 88 1027.6
20260510110049 49 215 0.0 0.0 0.00 0.00 0.00 88 1027.6
20260510105548 49 215 0.0 0.0 0.00 0.00 0.00 88 1027.5
20260510105046 49 215 0.0 0.0 0.00 0.00 0.00 88 1027.5
20260510104545 49 215 0.0 0.0 0.00 0.00 0.00 87 1027.6
20260510104044 50 215 0.0 0.0 0.00 0.00 0.00 87 1027.6
20260510103548 50 215 0.0 0.0 0.00 0.00 0.00 87 1027.5
20260510103050 50 215 0.0 0.0 0.00 0.00 0.00 87 1027.5
20260510102541 51 215 0.0 0.0 0.00 0.00 0.00 87 1027.5
20260510102039 51 215 0.0 0.0 0.00 0.00 0.00 87 1027.5
20260510101538 52 215 0.0 0.0 0.00 0.00 0.00 87 1027.5
20260510101036 52 215 0.0 0.0 0.00 0.00 0.00 86 1027.5
20260510100038 53 215 0.0 0.0 0.00 0.00 0.00 86 1027.4
20260510095532 54 215 0.0 0.0 0.00 0.00 0.00 86 1027.4
20260510095031 54 215 0.0 0.0 0.00 0.00 0.00 86 1027.4
20260510094540 55 215 0.0 0.0 0.00 0.00 0.00 86 1027.5
20260510094031 55 215 0.0 0.0 0.00 0.00 0.00 86 1027.5
20260510093533 56 215 0.0 0.0 0.00 0.00 0.00 86 1027.4
20260510093031 56 215 0.0 0.0 0.00 0.00 0.00 85 1027.4
20260510092531 56 215 0.0 0.9 0.00 0.00 0.00 86 1027.3
20260510092030 57 215 0.0 0.9 0.00 0.00 0.00 85 1027.3
20260510091530 57 216 0.0 0.9 0.00 0.00 0.00 85 1027.2
20260510091032 57 222 0.0 0.9 0.00 0.00 0.00 85 1027.2
20260510090530 57 282 0.0 0.9 0.00 0.00 0.00 85 1027.2
20260510090030 57 196 0.0 1.7 0.00 0.00 0.00 84 1027.2
20260510085530 57 279 0.0 0.9 0.00 0.00 0.00 84 1027.2
20260510085029 57 172 0.0 0.9 0.00 0.00 0.00 83 1027.2
20260510084529 57 165 0.0 2.6 0.00 0.00 0.00 83 1027.1
20260510084028 57 232 0.0 2.6 0.00 0.00 0.00 82 1027.1
20260510083528 57 208 0.0 2.6 0.00 0.00 0.00 82 1027.0
20260510083028 57 207 0.0 0.9 0.00 0.00 0.00 81 1027.0
20260510082527 57 183 0.0 0.9 0.00 0.00 0.00 80 1027.0
20260510082031 57 253 0.0 0.0 0.00 0.00 0.00 80 1027.0
20260510081536 57 253 0.0 0.9 0.00 0.00 0.00 79 1026.9
20260510081027 57 191 0.0 0.9 0.00 0.00 0.00 79 1026.9
20260510080527 57 191 0.0 0.0 0.00 0.00 0.00 78 1026.9
20260510080031 57 194 0.0 0.9 0.00 0.00 0.00 77 1026.8
20260510075526 57 194 0.0 0.9 0.00 0.00 0.00 77 1026.7
20260510075026 57 196 0.0 0.9 0.00 0.00 0.00 76 1026.6
20260510074526 58 144 0.0 1.7 0.00 0.00 0.00 76 1026.6
20260510074026 58 265 0.0 1.7 0.00 0.00 0.00 76 1026.5
20260510073528 58 275 0.0 2.6 0.00 0.00 0.00 76 1026.4
20260510073025 58 275 0.0 2.6 0.00 0.00 0.00 76 1026.4
20260510072525 58 282 0.0 0.9 0.00 0.00 0.00 75 1026.5
20260510072026 58 277 0.0 0.9 0.00 0.00 0.00 75 1026.5
20260510071524 58 291 0.0 1.7 0.00 0.00 0.00 74 1026.5
20260510071024 58 270 0.0 1.7 0.00 0.00 0.00 74 1026.4
20260510070524 59 279 0.0 1.7 0.00 0.00 0.00 73 1026.4
20260510070124 59 176 0.0 1.7 0.00 0.00 0.00 73 1026.4
20260510065525 60 158 0.0 1.7 0.00 0.00 0.00 72 1026.3
20260510065023 60 281 0.0 1.7 0.00 0.00 0.00 72 1026.3
20260510064523 60 208 0.0 2.6 0.00 0.00 0.00 71 1026.2
20260510064023 60 164 0.0 2.6 0.00 0.00 0.00 71 1026.3
20260510063523 60 272 0.0 3.5 0.00 0.00 0.00 72 1026.2
20260510063023 60 278 0.0 3.5 0.00 0.00 0.00 72 1026.2
20260510062523 60 284 0.0 2.6 0.00 0.00 0.00 72 1026.2
20260510062028 60 270 0.9 3.5 0.00 0.00 0.00 72 1026.2
20260510061527 60 263 0.9 3.5 0.00 0.00 0.00 71 1026.2
20260510061023 60 291 0.9 3.5 0.00 0.00 0.00 71 1026.2
20260510060527 60 273 0.9 3.5 0.00 0.00 0.00 71 1026.1
20260510060021 61 179 0.0 3.5 0.00 0.00 0.00 71 1026.2
20260510055521 61 283 0.9 3.5 0.00 0.00 0.00 71 1026.1
20260510055023 61 292 0.9 3.5 0.00 0.00 0.00 69 1026.2
20260510054522 61 296 0.0 2.6 0.00 0.00 0.00 67 1026.2
20260510054021 62 162 0.0 2.6 0.00 0.00 0.00 67 1026.2
20260510053521 63 289 0.0 1.7 0.00 0.00 0.00 65 1026.1
20260510053021 63 304 0.0 1.7 0.00 0.00 0.00 66 1026.1
20260510052521 63 181 0.0 2.6 0.00 0.00 0.00 67 1026.1
20260510052021 62 284 0.9 3.5 0.00 0.00 0.00 67 1026.1
20260510051530 62 292 0.0 1.7 0.00 0.00 0.00 67 1026.1
20260510051020 62 291 0.0 2.6 0.00 0.00 0.00 67 1026.0
20260510050521 62 323 0.9 2.6 0.00 0.00 0.00 66 1026.1
20260510050020 62 285 0.0 3.5 0.00 0.00 0.00 68 1026.0
20260510045620 61 285 0.0 4.3 0.00 0.00 0.00 67 1026.0
20260510045020 62 270 0.9 4.3 0.00 0.00 0.00 68 1026.1
20260510044519 61 317 0.9 5.2 0.00 0.00 0.00 68 1026.1
20260510044019 62 289 1.7 5.2 0.00 0.00 0.00 67 1026.1
20260510043519 61 259 0.9 4.3 0.00 0.00 0.00 67 1026.1
20260510043023 61 269 0.9 7.0 0.00 0.00 0.00 68 1026.1
20260510042518 60 260 0.9 7.0 0.00 0.00 0.00 68 1026.1
20260510042019 61 273 0.0 4.3 0.00 0.00 0.00 67 1026.2
20260510041518 61 288 0.0 4.3 0.00 0.00 0.00 66 1026.2
20260510041018 62 297 0.0 1.7 0.00 0.00 0.00 66 1026.3
20260510040518 62 149 0.0 3.5 0.00 0.00 0.00 65 1026.3
20260510040018 62 208 0.9 3.5 0.00 0.00 0.00 65 1026.4
20260510035517 62 162 0.9 3.5 0.00 0.00 0.00 65 1026.5
20260510035019 62 181 0.9 3.5 0.00 0.00 0.00 64 1026.5
20260510034517 62 242 0.0 3.5 0.00 0.00 0.00 66 1026.5
20260510034019 62 272 0.0 2.6 0.00 0.00 0.00 65 1026.6
20260510033516 62 285 0.0 2.6 0.00 0.00 0.00 66 1026.6
20260510033017 62 148 0.9 4.3 0.00 0.00 0.00 65 1026.7
20260510032516 62 265 0.0 4.3 0.00 0.00 0.00 65 1026.7
20260510032016 62 218 0.0 4.3 0.00 0.00 0.00 66 1026.7
20260510031516 62 163 0.9 5.2 0.00 0.00 0.00 64 1026.7
20260510031015 62 144 0.9 3.5 0.00 0.00 0.00 64 1026.7
20260510030515 63 300 0.9 3.5 0.00 0.00 0.00 64 1026.8
20260510030016 63 242 0.0 3.5 0.00 0.00 0.00 65 1026.9
20260510025513 62 257 0.9 3.5 0.00 0.00 0.00 66 1026.8
20260510024512 61 279 0.9 4.3 0.00 0.00 0.00 67 1027.0
20260510024011 61 285 0.0 2.6 0.00 0.00 0.00 69 1027.1
20260510023512 60 177 0.0 5.2 0.00 0.00 0.00 69 1027.2
20260510023013 61 124 1.7 5.2 0.00 0.00 0.00 68 1027.2
20260510022513 61 310 0.9 4.3 0.00 0.00 0.00 69 1027.3
20260510022011 61 298 0.9 4.3 0.00 0.00 0.00 70 1027.3
20260510021515 61 216 0.9 3.5 0.00 0.00 0.00 69 1027.3
20260510021010 61 173 0.0 3.5 0.00 0.00 0.00 70 1027.4
20260510020510 61 290 0.0 2.6 0.00 0.00 0.00 70 1027.4
20260510020010 61 176 0.0 3.5 0.00 0.00 0.00 70 1027.5
20260510015509 61 208 0.0 2.6 0.00 0.01 0.00 70 1027.6
20260510015009 61 162 0.0 2.6 0.00 0.01 0.00 70 1027.6
20260510014510 61 191 0.0 0.9 0.00 0.01 0.00 70 1027.7
20260510014008 61 281 0.0 2.6 0.00 0.01 0.00 71 1027.7
20260510013508 61 185 0.0 2.6 0.00 0.01 0.00 71 1027.8
20260510013006 61 296 0.0 2.6 0.00 0.01 0.00 72 1027.8
20260510012508 60 184 0.0 3.5 0.00 0.01 0.00 74 1027.8
20260510012005 60 193 0.0 4.3 0.00 0.01 0.00 75 1027.8
20260510011506 60 294 0.9 4.3 0.00 0.01 0.00 74 1027.9
20260510011005 60 195 0.0 2.6 0.00 0.01 0.00 75 1027.9
20260510010505 60 238 0.0 2.6 0.00 0.01 0.00 75 1027.9
20260510010003 60 200 0.0 3.5 0.00 0.01 0.00 75 1027.9
20260510005502 60 296 0.0 3.5 0.00 0.01 0.00 76 1027.8
20260510005003 59 285 0.0 1.7 0.00 0.01 0.00 77 1027.9
20260510004002 59 167 0.0 1.7 0.00 0.01 0.00 78 1027.9
20260510003502 59 289 0.0 0.9 0.00 0.01 0.00 79 1027.9
20260510003003 59 297 0.0 0.9 0.00 0.01 0.00 78 1027.9
20260510002503 59 296 0.0 1.7 0.00 0.01 0.00 77 1028.0
20260510002001 59 270 0.0 1.7 0.00 0.01 0.00 76 1027.8
20260510001502 60 259 0.0 0.9 0.00 0.01 0.00 75 1027.9
20260510001002 60 259 0.0 0.9 0.00 0.01 0.00 74 1027.9
20260510000601 59 223 0.0 0.9 0.00 0.01 0.00 73 1027.9
20260510000501 59 270 0.0 0.9 0.00 0.01 0.00 73 1027.9
20260510000100 59 254 0.0 0.9 0.00 0.01 0.00 73 1027.8
20260509235602 59 260 0.0 1.7 0.00 0.02 0.00 73 1027.8
20260509235101 59 165 0.0 1.7 0.00 0.02 0.00 73 1027.8
20260509234558 59 161 0.0 1.7 0.00 0.02 0.00 73 1027.8
20260509234058 59 168 0.0 1.7 0.00 0.02 0.00 73 1027.8
20260509233559 59 157 0.0 1.7 0.00 0.02 0.00 74 1027.7
20260509233057 59 164 0.0 1.7 0.00 0.02 0.00 74 1027.8
20260509232557 59 159 0.0 1.7 0.00 0.02 0.00 74 1027.8
20260509232056 59 173 0.0 0.9 0.00 0.02 0.00 75 1027.8
20260509231606 58 223 0.0 0.9 0.00 0.02 0.00 76 1027.8
20260509231056 58 253 0.0 0.9 0.00 0.02 0.00 77 1027.8
20260509230557 58 185 0.0 0.9 0.00 0.02 0.00 78 1027.7
20260509230052 58 194 0.0 0.9 0.00 0.02 0.00 78 1027.7
20260509225551 57 196 0.0 0.9 0.00 0.02 0.00 79 1027.7
20260509225049 57 185 0.0 0.9 0.00 0.02 0.00 79 1027.7